sat.trackr.live / text

‹ back to catalog

STARLINK-35086

NORAD 65699 · 2025-212Z

PAYLOAD ACTIVE UNKNOWN

§ Identity

Operator
Country
US
Launch date
2025-09-21
Launch site
AFETR
Launch vehicle
Mass (kg)
RCS (m²)

Purposes: comms

External: N2YO · Heavens-Above · Gunter

§ Orbital elements

Epoch: 2026-05-24T19:28:06.873888Z

Period
94.10 min
Inclination
53.1600°
Eccentricity
0.0001000
Mean motion
15.30214780 rev/d
Perigee alt
474.5 km
Apogee alt
475.9 km
Semi-major
6,853.3 km
B*
5.6201e-4
RAAN
352.4088°
Arg perigee
93.0575°
Mean anomaly
267.0540°
Rev number
3,884

§ Raw data

STARLINK-350861 65699U 25212Z   26144.81119067  .00016330  00000+0  56201-3 0  99962 65699  53.1600 352.4088 0001000  93.0575 267.0540 15.30214780 38840

JSON: /api/v1/satellites/65699 · /tle

For live sub-satellite position, see the globe view (requires WebGL).

§ Visibility from observer

Set your observer location to see the next 7 days of passes ≥ 10°. The values pass through the URL so the page stays shareable.

No JS? Fill the form by hand. The geolocation button needs JavaScript.